User: anonymous   Login
Location: G�migny
(47.9646°N, 1.6950°E)
Time: 22:19:13
(UTC+00:00)
Language:

YAOGAN 6 - Orbit

View from above orbital plane
View from above orbital plane
View from above satellite
View from above satellite

Ground track
Ground track

The orbit data is extracted from the following two-line orbital elements,

1 34839U 09021A   19347.08983310  .00000409  00000-0  18011-4 0  9993
2 34839  97.0438   1.0903 0027070 332.1440  27.8349 15.26737711591217
Epoch (UTC): 13 December 2019 02:09:21
Eccentricity: 0.0027070
inclination: 97.0438°
perigee height: 467 km
apogee height: 504 km
right ascension of ascending node: 1.0903°
argument of perigee: 332.1440°
revolutions per day: 15.26737711
mean anomaly at epoch: 27.8349°
orbit number at epoch: 59121

The dashed part of the orbit path shows where the satellite is in the earth's shadow,  

DLR